| time (UTC) | temp F | wind direction | speed MPH | gust MPH | rain 1hr in | rain 24hr in | rain mn in | humidity % | barometer mb |
| 20260502130728 | 39 | 252 | 0.0 | 1.0 | 0.00 | 0.00 | 0.00 | 88 | 1009.4 |
| 20260502130225 | 39 | 260 | 0.0 | 1.0 | 0.00 | 0.00 | 0.00 | 87 | 1009.3 |
| 20260502123711 | 38 | 266 | 2.0 | 2.0 | 0.00 | 0.00 | 0.00 | 88 | 1009.0 |
| 20260502123208 | 38 | 270 | 3.0 | 3.0 | 0.00 | 0.00 | 0.00 | 88 | 1008.9 |
| 20260502122705 | 37 | 244 | 3.0 | 3.0 | 0.00 | 0.00 | 0.00 | 87 | 1008.9 |
| 20260502122201 | 37 | 275 | 1.0 | 2.0 | 0.00 | 0.00 | 0.00 | 87 | 1009.0 |
| 20260502121659 | 39 | 323 | 3.0 | 3.0 | 0.00 | 0.00 | 0.00 | 87 | 1009.1 |
| 20260502121157 | 39 | 259 | 0.0 | 1.0 | 0.00 | 0.00 | 0.00 | 89 | 1008.9 |
| 20260502120653 | 37 | 253 | 0.0 | 1.0 | 0.00 | 0.00 | 0.00 | 93 | 1008.6 |
| 20260502120150 | 36 | 259 | 3.0 | 3.0 | 0.00 | 0.00 | 0.00 | 94 | 1008.7 |
| 20260502115648 | 37 | 265 | 1.0 | 1.0 | 0.00 | 0.00 | 0.00 | 95 | 1008.8 |
| 20260502115144 | 35 | 258 | 0.0 | 0.0 | 0.00 | 0.00 | 0.00 | 96 | 1008.8 |
| 20260502114640 | 35 | 257 | 0.0 | 0.0 | 0.00 | 0.00 | 0.00 | 97 | 1008.7 |
| 20260502114138 | 34 | 255 | 0.0 | 0.0 | 0.00 | 0.00 | 0.00 | 98 | 1008.7 |
| 20260502113635 | 34 | 253 | 1.0 | 1.0 | 0.00 | 0.00 | 0.00 | 98 | 1008.8 |
| 20260502113133 | 34 | 256 | 0.0 | 0.0 | 0.00 | 0.00 | 0.00 | 98 | 1008.8 |
| 20260502112630 | 34 | 254 | 0.0 | 0.0 | 0.00 | 0.00 | 0.00 | 98 | 1008.6 |
| 20260502112128 | 34 | 254 | 0.0 | 0.0 | 0.00 | 0.00 | 0.00 | 98 | 1008.6 |
| 20260502111625 | 33 | 254 | 0.0 | 0.0 | 0.00 | 0.00 | 0.00 | 98 | 1008.5 |
| 20260502111122 | 33 | 254 | 0.0 | 0.0 | 0.00 | 0.00 | 0.00 | 98 | 1008.6 |
| 20260502110620 | 33 | 254 | 0.0 | 0.0 | 0.00 | 0.00 | 0.00 | 98 | 1008.7 |
| 20260502110117 | 32 | 254 | 0.0 | 0.0 | 0.00 | 0.00 | 0.00 | 98 | 1008.6 |
| 20260502105614 | 32 | 254 | 0.0 | 0.0 | 0.00 | 0.00 | 0.00 | 98 | 1008.4 |
| 20260502105111 | 32 | 254 | 0.0 | 0.0 | 0.00 | 0.00 | 0.00 | 98 | 1008.6 |
| 20260502104609 | 32 | 254 | 0.0 | 0.0 | 0.00 | 0.00 | 0.00 | 98 | 1008.5 |
| 20260502104106 | 32 | 254 | 0.0 | 0.0 | 0.00 | 0.00 | 0.00 | 98 | 1008.5 |
| 20260502103603 | 32 | 254 | 0.0 | 0.0 | 0.00 | 0.00 | 0.00 | 98 | 1008.5 |
| 20260502103102 | 33 | 254 | 0.0 | 0.0 | 0.00 | 0.00 | 0.00 | 98 | 1008.5 |
| 20260502102557 | 32 | 254 | 0.0 | 0.0 | 0.00 | 0.00 | 0.00 | 98 | 1008.5 |
| 20260502102055 | 32 | 254 | 0.0 | 0.0 | 0.00 | 0.00 | 0.00 | 98 | 1008.4 |
| 20260502101553 | 32 | 254 | 0.0 | 0.0 | 0.00 | 0.00 | 0.00 | 98 | 1008.3 |
| 20260502101051 | 32 | 254 | 0.0 | 0.0 | 0.00 | 0.00 | 0.00 | 98 | 1008.4 |
| 20260502100549 | 33 | 254 | 0.0 | 0.0 | 0.00 | 0.00 | 0.00 | 98 | 1008.3 |
| 20260502091524 | 34 | 261 | 0.0 | 0.0 | 0.00 | 0.00 | 0.00 | 97 | 1008.1 |
| 20260502091021 | 35 | 261 | 0.0 | 0.0 | 0.00 | 0.00 | 0.00 | 97 | 1008.1 |
| 20260502090518 | 35 | 257 | 0.0 | 0.0 | 0.00 | 0.00 | 0.00 | 97 | 1008.3 |
| 20260502071413 | 38 | 257 | 0.0 | 0.0 | 0.00 | 0.00 | 0.00 | 97 | 1007.7 |
| 20260502070911 | 38 | 255 | 0.0 | 0.0 | 0.00 | 0.00 | 0.00 | 97 | 1008.0 |
| 20260502070408 | 38 | 257 | 1.0 | 1.0 | 0.00 | 0.00 | 0.00 | 97 | 1008.1 |
| 20260502065907 | 38 | 254 | 0.0 | 0.0 | 0.00 | 0.00 | 0.00 | 97 | 1008.0 |
| 20260502065405 | 38 | 250 | 2.0 | 2.0 | 0.00 | 0.00 | 0.00 | 98 | 1008.0 |
| 20260502064903 | 37 | 254 | 1.0 | 1.0 | 0.00 | 0.00 | 0.00 | 98 | 1008.1 |
| 20260502064400 | 37 | 253 | 0.0 | 0.0 | 0.00 | 0.00 | 0.00 | 97 | 1008.2 |
| 20260502063856 | 37 | 254 | 0.0 | 0.0 | 0.00 | 0.00 | 0.00 | 97 | 1008.1 |
| 20260502063355 | 36 | 254 | 0.0 | 0.0 | 0.00 | 0.00 | 0.00 | 97 | 1008.0 |
| 20260502062852 | 36 | 254 | 0.0 | 0.0 | 0.00 | 0.00 | 0.00 | 97 | 1008.0 |
| 20260502062349 | 37 | 254 | 0.0 | 0.0 | 0.00 | 0.00 | 0.00 | 97 | 1008.0 |
| 20260502061848 | 37 | 254 | 0.0 | 0.0 | 0.00 | 0.00 | 0.00 | 97 | 1008.4 |
| 20260502061345 | 37 | 254 | 0.0 | 0.0 | 0.00 | 0.00 | 0.00 | 97 | 1008.3 |
| 20260502060841 | 37 | 254 | 0.0 | 0.0 | 0.00 | 0.00 | 0.00 | 96 | 1008.4 |
| 20260502060336 | 37 | 253 | 0.0 | 0.0 | 0.00 | 0.00 | 0.00 | 96 | 1008.4 |
| 20260502055834 | 37 | 253 | 1.0 | 1.0 | 0.00 | 0.00 | 0.00 | 96 | 1008.6 |
| 20260502055332 | 37 | 257 | 0.0 | 0.0 | 0.00 | 0.00 | 0.00 | 96 | 1008.3 |
| 20260502054831 | 37 | 257 | 0.0 | 1.0 | 0.00 | 0.00 | 0.00 | 96 | 1008.6 |
| 20260502054328 | 37 | 258 | 0.0 | 0.0 | 0.00 | 0.00 | 0.00 | 96 | 1008.4 |
| 20260502053826 | 38 | 259 | 0.0 | 0.0 | 0.00 | 0.00 | 0.00 | 95 | 1008.5 |
| 20260502053323 | 38 | 258 | 0.0 | 0.0 | 0.00 | 0.00 | 0.00 | 95 | 1008.4 |
| 20260502052820 | 38 | 258 | 0.0 | 0.0 | 0.00 | 0.00 | 0.00 | 95 | 1008.5 |
| 20260502052318 | 38 | 259 | 0.0 | 0.0 | 0.00 | 0.00 | 0.00 | 95 | 1008.7 |
| 20260502051815 | 38 | 259 | 0.0 | 0.0 | 0.00 | 0.00 | 0.00 | 95 | 1008.6 |
| 20260502051315 | 39 | 259 | 0.0 | 0.0 | 0.00 | 0.00 | 0.00 | 94 | 1008.3 |
| 20260502050810 | 39 | 259 | 0.0 | 0.0 | 0.00 | 0.00 | 0.00 | 94 | 1008.8 |
| 20260502050306 | 39 | 259 | 0.0 | 0.0 | 0.00 | 0.00 | 0.00 | 94 | 1008.8 |
| 20260502045804 | 39 | 259 | 0.0 | 0.0 | 0.00 | 0.00 | 0.00 | 94 | 1008.8 |
| 20260502045300 | 39 | 259 | 0.0 | 0.0 | 0.00 | 0.00 | 0.00 | 93 | 1008.7 |
| 20260502044758 | 39 | 259 | 0.0 | 0.0 | 0.00 | 0.00 | 0.00 | 94 | 1008.7 |
| 20260502044254 | 40 | 260 | 0.0 | 0.0 | 0.00 | 0.00 | 0.00 | 94 | 1009.0 |
| 20260502043751 | 40 | 262 | 1.0 | 1.0 | 0.00 | 0.00 | 0.00 | 94 | 1008.8 |
| 20260502043249 | 40 | 253 | 0.0 | 0.0 | 0.00 | 0.00 | 0.00 | 94 | 1008.6 |
| 20260502042748 | 40 | 253 | 0.0 | 0.0 | 0.00 | 0.00 | 0.00 | 94 | 1008.8 |
| 20260502042245 | 40 | 253 | 0.0 | 0.0 | 0.00 | 0.00 | 0.00 | 94 | 1008.7 |
| 20260502041743 | 40 | 253 | 0.0 | 0.0 | 0.00 | 0.00 | 0.00 | 94 | 1008.6 |
| 20260502041240 | 40 | 253 | 0.0 | 0.0 | 0.00 | 0.00 | 0.00 | 94 | 1008.7 |
| 20260502040737 | 40 | 253 | 0.0 | 0.0 | 0.00 | 0.00 | 0.00 | 94 | 1008.6 |
| 20260502040234 | 40 | 253 | 0.0 | 0.0 | 0.00 | 0.00 | 0.00 | 94 | 1008.7 |
| 20260502035729 | 40 | 253 | 0.0 | 0.0 | 0.00 | 0.35 | 0.35 | 94 | 1008.8 |
| 20260502035227 | 40 | 253 | 0.0 | 0.0 | 0.00 | 0.35 | 0.35 | 93 | 1008.7 |
| 20260502034724 | 40 | 253 | 0.0 | 0.0 | 0.00 | 0.35 | 0.35 | 93 | 1009.0 |
| 20260502034222 | 40 | 253 | 0.0 | 0.0 | 0.00 | 0.35 | 0.35 | 93 | 1008.7 |
| 20260502033720 | 40 | 253 | 0.0 | 0.0 | 0.00 | 0.35 | 0.35 | 93 | 1008.7 |
| 20260502033218 | 40 | 253 | 0.0 | 0.0 | 0.00 | 0.35 | 0.35 | 93 | 1008.8 |
| 20260502032714 | 40 | 252 | 1.0 | 1.0 | 0.00 | 0.35 | 0.35 | 93 | 1008.8 |
| 20260502032210 | 40 | 253 | 0.0 | 0.0 | 0.00 | 0.35 | 0.35 | 94 | 1008.8 |
| 20260502031708 | 40 | 253 | 0.0 | 1.0 | 0.00 | 0.35 | 0.35 | 94 | 1008.7 |
| 20260502031206 | 40 | 254 | 0.0 | 0.0 | 0.00 | 0.35 | 0.35 | 94 | 1008.7 |
| 20260502030704 | 40 | 254 | 0.0 | 0.0 | 0.00 | 0.35 | 0.35 | 94 | 1008.7 |
| 20260502030202 | 41 | 253 | 1.0 | 1.0 | 0.00 | 0.35 | 0.35 | 95 | 1008.7 |
| 20260502025658 | 40 | 254 | 0.0 | 0.0 | 0.00 | 0.35 | 0.35 | 95 | 1008.7 |
| 20260502025156 | 40 | 256 | 0.0 | 0.0 | 0.00 | 0.35 | 0.35 | 95 | 1008.7 |
| 20260502024654 | 40 | 256 | 0.0 | 0.0 | 0.00 | 0.35 | 0.35 | 95 | 1008.6 |
| 20260502024152 | 40 | 256 | 0.0 | 0.0 | 0.00 | 0.35 | 0.35 | 95 | 1008.8 |
| 20260502023650 | 40 | 256 | 0.0 | 0.0 | 0.00 | 0.35 | 0.35 | 95 | 1008.6 |
| 20260502023147 | 40 | 256 | 0.0 | 0.0 | 0.00 | 0.35 | 0.35 | 95 | 1008.9 |
| 20260502022644 | 40 | 257 | 0.0 | 0.0 | 0.00 | 0.35 | 0.35 | 95 | 1008.5 |
| 20260502022141 | 40 | 257 | 0.0 | 0.0 | 0.00 | 0.35 | 0.35 | 95 | 1008.7 |
| 20260502021638 | 40 | 257 | 0.0 | 0.0 | 0.00 | 0.35 | 0.35 | 94 | 1008.7 |
| 20260502021135 | 40 | 257 | 0.0 | 0.0 | 0.00 | 0.35 | 0.35 | 94 | 1008.6 |
| 20260502020633 | 40 | 257 | 0.0 | 0.0 | 0.00 | 0.35 | 0.35 | 94 | 1008.6 |
| 20260502020129 | 40 | 257 | 0.0 | 0.0 | 0.00 | 0.35 | 0.35 | 94 | 1008.4 |
| 20260502015627 | 40 | 257 | 0.0 | 0.0 | 0.00 | 0.35 | 0.35 | 94 | 1008.6 |
| 20260502015123 | 40 | 257 | 0.0 | 0.0 | 0.00 | 0.35 | 0.35 | 94 | 1008.4 |
| 20260502014621 | 40 | 257 | 0.0 | 0.0 | 0.00 | 0.35 | 0.35 | 93 | 1008.3 |
| 20260502014118 | 40 | 257 | 0.0 | 0.0 | 0.00 | 0.35 | 0.35 | 93 | 1008.2 |
| 20260502013614 | 40 | 257 | 0.0 | 0.0 | 0.00 | 0.35 | 0.35 | 92 | 1008.1 |
| 20260502013109 | 40 | 256 | 0.0 | 0.0 | 0.00 | 0.35 | 0.35 | 91 | 1008.2 |
| 20260502012607 | 41 | 257 | 0.0 | 0.0 | 0.00 | 0.35 | 0.35 | 91 | 1008.1 |
| 20260502012105 | 41 | 257 | 0.0 | 0.0 | 0.00 | 0.35 | 0.35 | 91 | 1008.2 |
| 20260502011601 | 41 | 257 | 0.0 | 0.0 | 0.00 | 0.35 | 0.35 | 91 | 1007.8 |
| 20260502011057 | 41 | 257 | 0.0 | 0.0 | 0.00 | 0.35 | 0.35 | 91 | 1007.8 |
| 20260502010555 | 41 | 257 | 0.0 | 0.0 | 0.00 | 0.35 | 0.35 | 91 | 1007.7 |
| 20260502010051 | 41 | 257 | 0.0 | 0.0 | 0.00 | 0.35 | 0.35 | 91 | 1008.1 |
| 20260502005549 | 41 | 257 | 0.0 | 0.0 | 0.00 | 0.35 | 0.35 | 91 | 1008.0 |
| 20260502005047 | 41 | 257 | 0.0 | 0.0 | 0.00 | 0.35 | 0.35 | 91 | 1008.0 |
| 20260502004542 | 41 | 257 | 0.0 | 0.0 | 0.00 | 0.35 | 0.35 | 91 | 1008.0 |
| 20260502004039 | 41 | 257 | 0.0 | 0.0 | 0.00 | 0.35 | 0.35 | 91 | 1008.0 |
| 20260502003537 | 41 | 257 | 0.0 | 0.0 | 0.00 | 0.35 | 0.35 | 90 | 1008.0 |
| 20260502003034 | 42 | 257 | 0.0 | 0.0 | 0.00 | 0.35 | 0.35 | 89 | 1007.8 |
| 20260502002530 | 42 | 257 | 0.0 | 0.0 | 0.00 | 0.35 | 0.35 | 89 | 1007.7 |
| 20260502002027 | 42 | 257 | 0.0 | 0.0 | 0.00 | 0.35 | 0.35 | 88 | 1007.4 |
| 20260502001525 | 42 | 257 | 0.0 | 0.0 | 0.00 | 0.35 | 0.35 | 88 | 1007.5 |
| 20260502001022 | 42 | 257 | 0.0 | 0.0 | 0.00 | 0.35 | 0.35 | 88 | 1007.3 |
| 20260502000521 | 43 | 257 | 0.0 | 0.0 | 0.00 | 0.35 | 0.35 | 88 | 1007.2 |
| 20260502000017 | 43 | 257 | 0.0 | 0.0 | 0.00 | 0.35 | 0.35 | 87 | 1007.3 |
| 20260501235513 | 43 | 257 | 0.0 | 0.0 | 0.00 | 0.35 | 0.35 | 86 | 1007.1 |
| 20260501235009 | 44 | 256 | 1.0 | 1.0 | 0.00 | 0.35 | 0.35 | 84 | 1007.0 |
| 20260501234504 | 44 | 261 | 0.0 | 0.0 | 0.00 | 0.35 | 0.35 | 81 | 1006.7 |
| 20260501234003 | 44 | 262 | 0.0 | 0.0 | 0.00 | 0.35 | 0.35 | 77 | 1007.0 |
| 20260501233501 | 44 | 263 | 1.0 | 1.0 | 0.00 | 0.35 | 0.35 | 77 | 1006.9 |
| 20260501232956 | 44 | 265 | 2.0 | 2.0 | 0.00 | 0.35 | 0.35 | 76 | 1006.7 |
| 20260501232453 | 44 | 269 | 0.0 | 1.0 | 0.00 | 0.35 | 0.35 | 78 | 1006.9 |
| 20260501231950 | 44 | 272 | 1.0 | 2.0 | 0.00 | 0.35 | 0.35 | 77 | 1006.6 |
| 20260501231449 | 44 | 265 | 0.0 | 0.0 | 0.00 | 0.35 | 0.35 | 78 | 1006.6 |
| 20260501230947 | 45 | 270 | 3.0 | 3.0 | 0.00 | 0.35 | 0.35 | 77 | 1006.9 |
| 20260501230445 | 45 | 267 | 2.0 | 2.0 | 0.00 | 0.35 | 0.35 | 78 | 1006.8 |
| 20260501225943 | 45 | 310 | 2.0 | 3.0 | 0.00 | 0.35 | 0.35 | 76 | 1006.7 |
| 20260501225440 | 46 | 268 | 2.0 | 2.0 | 0.00 | 0.35 | 0.35 | 77 | 1006.9 |
| 20260501224936 | 46 | 280 | 1.0 | 1.0 | 0.00 | 0.35 | 0.35 | 78 | 1006.8 |
| 20260501224433 | 46 | 292 | 3.0 | 3.0 | 0.00 | 0.35 | 0.35 | 76 | 1006.9 |
| 20260501223930 | 46 | 267 | 2.0 | 3.0 | 0.00 | 0.35 | 0.35 | 77 | 1007.0 |
| 20260501223426 | 45 | 288 | 3.0 | 3.0 | 0.00 | 0.35 | 0.35 | 76 | 1006.9 |
| 20260501222922 | 45 | 325 | 2.0 | 3.0 | 0.00 | 0.35 | 0.35 | 78 | 1007.1 |
| 20260501222420 | 45 | 260 | 0.0 | 0.0 | 0.00 | 0.35 | 0.35 | 78 | 1006.9 |
| 20260501221916 | 46 | 263 | 0.0 | 0.0 | 0.00 | 0.35 | 0.35 | 78 | 1006.8 |
| 20260501221413 | 45 | 311 | 1.0 | 2.0 | 0.00 | 0.35 | 0.35 | 78 | 1007.1 |
| 20260501220911 | 46 | 268 | 2.0 | 2.0 | 0.00 | 0.35 | 0.35 | 79 | 1006.6 |
| 20260501220408 | 45 | 266 | 0.0 | 1.0 | 0.00 | 0.35 | 0.35 | 80 | 1006.7 |
| 20260501215904 | 45 | 277 | 2.0 | 2.0 | 0.00 | 0.35 | 0.35 | 79 | 1006.6 |
| 20260501215401 | 45 | 272 | 1.0 | 1.0 | 0.00 | 0.35 | 0.35 | 78 | 1006.4 |
| 20260501214856 | 45 | 284 | 3.0 | 3.0 | 0.00 | 0.35 | 0.35 | 82 | 1006.5 |
| 20260501214352 | 45 | 281 | 2.0 | 2.0 | 0.00 | 0.35 | 0.35 | 83 | 1006.4 |
| 20260501213848 | 45 | 275 | 1.0 | 1.0 | 0.00 | 0.35 | 0.35 | 84 | 1006.3 |
| 20260501213345 | 45 | 265 | 0.0 | 1.0 | 0.00 | 0.35 | 0.35 | 85 | 1006.2 |
| 20260501212840 | 44 | 278 | 2.0 | 2.0 | 0.00 | 0.35 | 0.35 | 86 | 1006.5 |
| 20260501212337 | 43 | 262 | 3.0 | 3.0 | 0.00 | 0.35 | 0.35 | 87 | 1006.4 |
| 20260501211834 | 43 | 260 | 0.0 | 1.0 | 0.00 | 0.35 | 0.35 | 88 | 1006.5 |
| 20260501211332 | 43 | 256 | 0.0 | 1.0 | 0.00 | 0.35 | 0.35 | 88 | 1006.2 |
| 20260501210828 | 43 | 286 | 2.0 | 2.0 | 0.00 | 0.35 | 0.35 | 88 | 1006.1 |
| 20260501210325 | 43 | 284 | 3.0 | 3.0 | 0.00 | 0.35 | 0.35 | 88 | 1006.0 |
| 20260501205816 | 43 | 310 | 4.0 | 5.0 | 0.00 | 0.35 | 0.35 | 88 | 1005.8 |
| 20260501205313 | 43 | 296 | 2.0 | 3.0 | 0.00 | 0.35 | 0.35 | 88 | 1006.1 |
| 20260501204810 | 43 | 295 | 3.0 | 6.0 | 0.00 | 0.35 | 0.35 | 88 | 1006.0 |
| 20260501204307 | 43 | 265 | 0.0 | 0.0 | 0.00 | 0.35 | 0.35 | 89 | 1005.7 |
| 20260501203803 | 44 | 265 | 0.0 | 0.0 | 0.00 | 0.35 | 0.35 | 89 | 1005.8 |
| 20260501203301 | 44 | 283 | 1.0 | 1.0 | 0.00 | 0.35 | 0.35 | 89 | 1005.8 |
| 20260501202757 | 44 | 282 | 1.0 | 2.0 | 0.00 | 0.35 | 0.35 | 89 | 1005.7 |
| 20260501202254 | 43 | 263 | 1.0 | 1.0 | 0.00 | 0.35 | 0.35 | 90 | 1005.6 |
| 20260501201751 | 42 | 322 | 3.0 | 5.0 | 0.00 | 0.35 | 0.35 | 90 | 1005.5 |
| 20260501201248 | 42 | 288 | 3.0 | 5.0 | 0.00 | 0.35 | 0.35 | 90 | 1005.6 |
| 20260501200744 | 42 | 272 | 2.0 | 5.0 | 0.00 | 0.35 | 0.35 | 90 | 1005.4 |
| 20260501200242 | 43 | 275 | 5.0 | 6.0 | 0.00 | 0.35 | 0.35 | 91 | 1005.3 |
| 20260501195739 | 42 | 267 | 2.0 | 2.0 | 0.00 | 0.35 | 0.35 | 92 | 1005.3 |
| 20260501195235 | 43 | 262 | 3.0 | 5.0 | 0.00 | 0.35 | 0.35 | 92 | 1005.3 |
| 20260501194731 | 43 | 277 | 2.0 | 2.0 | 0.00 | 0.35 | 0.35 | 93 | 1005.1 |
| 20260501194227 | 43 | 289 | 1.0 | 1.0 | 0.00 | 0.35 | 0.35 | 93 | 1005.1 |
| 20260501193723 | 42 | 274 | 1.0 | 1.0 | 0.00 | 0.35 | 0.35 | 93 | 1005.2 |
| 20260501193222 | 42 | 302 | 1.0 | 2.0 | 0.00 | 0.35 | 0.35 | 94 | 1005.2 |
| 20260501192719 | 42 | 267 | 0.0 | 1.0 | 0.00 | 0.35 | 0.35 | 94 | 1005.1 |
| 20260501192216 | 42 | 294 | 2.0 | 2.0 | 0.00 | 0.35 | 0.35 | 94 | 1005.1 |
| 20260501191713 | 41 | 271 | 2.0 | 2.0 | 0.00 | 0.35 | 0.35 | 94 | 1005.1 |
| 20260501191211 | 42 | 292 | 4.0 | 5.0 | 0.07 | 0.35 | 0.35 | 94 | 1005.0 |
| 20260501190707 | 41 | 256 | 2.0 | 2.0 | 0.12 | 0.35 | 0.35 | 94 | 1005.1 |
| 20260501190202 | 41 | 269 | 1.0 | 1.0 | 0.19 | 0.34 | 0.34 | 94 | 1005.1 |
| 20260501185659 | 41 | 289 | 2.0 | 2.0 | 0.19 | 0.33 | 0.33 | 94 | 1005.0 |
| 20260501185155 | 41 | 271 | 1.0 | 1.0 | 0.00 | 0.30 | 0.30 | 93 | 1004.9 |
| 20260501184650 | 42 | 261 | 0.0 | 1.0 | 0.00 | 0.30 | 0.30 | 93 | 1004.7 |
| 20260501184145 | 42 | 275 | 3.0 | 5.0 | 0.00 | 0.30 | 0.30 | 93 | 1004.5 |
| 20260501183642 | 42 | 293 | 3.0 | 3.0 | 0.07 | 0.30 | 0.30 | 94 | 1004.5 |
| 20260501183138 | 42 | 283 | 2.0 | 3.0 | 0.07 | 0.30 | 0.30 | 93 | 1004.6 |
| 20260501182635 | 42 | 274 | 3.0 | 3.0 | 0.05 | 0.29 | 0.29 | 93 | 1004.5 |
| 20260501182132 | 43 | 323 | 6.0 | 8.0 | 0.12 | 0.29 | 0.29 | 93 | 1004.2 |
| 20260501181629 | 45 | 293 | 4.0 | 5.0 | 0.12 | 0.28 | 0.28 | 93 | 1004.0 |
| 20260501181126 | 45 | 275 | 0.0 | 1.0 | 0.05 | 0.27 | 0.27 | 93 | 1003.9 |
| 20260501180624 | 45 | 268 | 0.0 | 1.0 | 0.07 | 0.26 | 0.26 | 93 | 1003.7 |
| 20260501180120 | 46 | 268 | 0.0 | 0.0 | 0.07 | 0.26 | 0.26 | 93 | 1004.0 |
| 20260501175617 | 46 | 273 | 0.0 | 1.0 | 0.00 | 0.25 | 0.25 | 93 | 1003.8 |
| 20260501175114 | 46 | 270 | 0.0 | 0.0 | 0.00 | 0.25 | 0.25 | 93 | 1003.8 |
| 20260501174610 | 46 | 270 | 0.0 | 0.0 | 0.00 | 0.25 | 0.25 | 92 | 1003.8 |
| 20260501174108 | 46 | 270 | 0.0 | 1.0 | 0.00 | 0.25 | 0.25 | 92 | 1003.6 |
| 20260501173605 | 46 | 262 | 0.0 | 0.0 | 0.00 | 0.25 | 0.25 | 92 | 1003.7 |
| 20260501173102 | 45 | 262 | 0.0 | 1.0 | 0.05 | 0.25 | 0.25 | 93 | 1003.8 |
| 20260501172557 | 45 | 270 | 0.0 | 0.0 | 0.05 | 0.25 | 0.25 | 93 | 1003.7 |
| 20260501172053 | 45 | 267 | 0.0 | 0.0 | 0.00 | 0.24 | 0.24 | 93 | 1004.0 |
| 20260501171549 | 46 | 288 | 1.0 | 1.0 | 0.00 | 0.24 | 0.24 | 93 | 1003.8 |
| 20260501171046 | 46 | 279 | 1.0 | 1.0 | 0.07 | 0.24 | 0.24 | 93 | 1003.6 |
| 20260501170543 | 46 | 271 | 0.0 | 0.0 | 0.07 | 0.24 | 0.24 | 93 | 1003.9 |
| 20260501170040 | 45 | 267 | 0.0 | 0.0 | 0.00 | 0.23 | 0.23 | 93 | 1004.0 |
| 20260501165538 | 45 | 275 | 0.0 | 1.0 | 0.05 | 0.23 | 0.23 | 93 | 1004.0 |
| 20260501165035 | 46 | 262 | 0.0 | 0.0 | 0.05 | 0.23 | 0.23 | 94 | 1003.8 |
| 20260501164533 | 45 | 262 | 0.0 | 0.0 | 0.00 | 0.22 | 0.22 | 94 | 1004.0 |
| 20260501164029 | 45 | 262 | 0.0 | 0.0 | 0.00 | 0.22 | 0.22 | 94 | 1003.9 |
| 20260501163526 | 44 | 271 | 0.0 | 0.0 | 0.00 | 0.22 | 0.22 | 94 | 1003.9 |
| 20260501163023 | 44 | 269 | 0.0 | 0.0 | 0.07 | 0.22 | 0.22 | 94 | 1004.1 |
| 20260501162519 | 45 | 269 | 0.0 | 0.0 | 0.07 | 0.22 | 0.22 | 94 | 1003.8 |
| 20260501162016 | 44 | 269 | 0.0 | 0.0 | 0.00 | 0.21 | 0.21 | 94 | 1004.0 |
| 20260501161513 | 44 | 265 | 0.0 | 0.0 | 0.00 | 0.21 | 0.21 | 94 | 1003.9 |
| 20260501161010 | 44 | 267 | 0.0 | 0.0 | 0.00 | 0.21 | 0.21 | 94 | 1004.0 |
| 20260501160507 | 44 | 261 | 0.0 | 0.0 | 0.00 | 0.21 | 0.21 | 94 | 1003.9 |
| 20260501160004 | 44 | 269 | 1.0 | 1.0 | 0.00 | 0.21 | 0.21 | 95 | 1003.8 |
| 20260501155500 | 44 | 259 | 1.0 | 1.0 | 0.00 | 0.21 | 0.21 | 95 | 1004.0 |
| 20260501154957 | 44 | 258 | 0.0 | 1.0 | 0.00 | 0.21 | 0.21 | 95 | 1004.0 |
| 20260501154455 | 44 | 259 | 0.0 | 0.0 | 0.00 | 0.21 | 0.21 | 95 | 1004.1 |
| 20260501153951 | 44 | 259 | 0.0 | 0.0 | 0.00 | 0.21 | 0.21 | 95 | 1003.9 |
| 20260501153449 | 44 | 261 | 0.0 | 0.0 | 0.05 | 0.21 | 0.21 | 95 | 1004.1 |
| 20260501152944 | 44 | 263 | 0.0 | 0.0 | 0.12 | 0.21 | 0.21 | 95 | 1004.3 |
| 20260501152442 | 44 | 262 | 0.0 | 0.0 | 0.14 | 0.20 | 0.20 | 95 | 1004.3 |
| 20260501151939 | 44 | 266 | 0.0 | 0.0 | 0.12 | 0.19 | 0.19 | 95 | 1004.2 |
| 20260501151436 | 44 | 266 | 0.0 | 0.0 | 0.05 | 0.18 | 0.18 | 94 | 1004.3 |
| 20260501150932 | 44 | 266 | 0.0 | 0.0 | 0.07 | 0.17 | 0.17 | 94 | 1004.5 |
| 20260501150428 | 44 | 267 | 0.0 | 0.0 | 0.12 | 0.17 | 0.17 | 94 | 1004.5 |
| 20260501145925 | 44 | 266 | 0.0 | 0.0 | 0.12 | 0.16 | 0.16 | 94 | 1004.3 |
| 20260501145421 | 44 | 266 | 0.0 | 0.0 | 0.12 | 0.15 | 0.15 | 94 | 1004.5 |
| 20260501144919 | 44 | 269 | 0.0 | 0.0 | 0.12 | 0.14 | 0.14 | 94 | 1004.5 |
| 20260501144414 | 44 | 278 | 1.0 | 1.0 | 0.12 | 0.13 | 0.13 | 94 | 1004.5 |
| 20260501143910 | 44 | 263 | 0.0 | 0.0 | 0.17 | 0.12 | 0.12 | 94 | 1004.6 |
| 20260501143407 | 44 | 262 | 0.0 | 0.0 | 0.19 | 0.11 | 0.11 | 94 | 1004.6 |
| 20260501142904 | 44 | 263 | 0.0 | 0.0 | 0.07 | 0.09 | 0.09 | 94 | 1004.6 |
| 20260501142401 | 44 | 262 | 0.0 | 0.0 | 0.00 | 0.08 | 0.08 | 94 | 1004.2 |
| 20260501141856 | 44 | 262 | 0.0 | 0.0 | 0.00 | 0.08 | 0.08 | 94 | 1004.5 |